Voltar ao catálogo

SL-8 R/B

AtivoLEO
NORAD 11051·ROCKET BODY·🇷🇺 Russia

Lançado Oct 4, 1978 de Plesetsk Cosmodrome

Loading…

Próximas Passagens (próximas 24 horas)

TLE

AtualizadoSource: Space-Track

Época: Sep 14, 2026, 10:02 UTC

1 11051U 78091J   26257.41815361 -.00000081  00000-0 -62410-3 0  9991
2 11051  74.0418  40.4411 0136498 189.1868 198.4633 12.20473583136302

Acompanhe SL-8 R/B em tempo real com AllMySat

Download on the App Store